Orense, Spain
Current Conditions -  °F | °C
As of 7:30 AM on Monday 24 Nov 2014 (Local Time) from LEVX Reporting Station
Clear Clear  
Wind Chill: 50°   Ceiling: Unl
Heat Index: 50°   Visibility: 6mi
Dew Point: 50°   Wind: 6mph
Humidity: 100%   Direction: 10°N
Pressure: 30.03"   Gusts: NA
Location:  42.34°N, 7.86°W
Report Text: LEVX 240630Z 01005KT CAVOK 10/10 Q1017 NOSIG
Loading
Personal Weather Stations






























Interactive Weather Map New forecast layout! Learn more

10-Day Weather Forecast

Advertisements
Track Severe Weather on mobile